Zurück zum Katalog

PICOSAT 1&2

TETHERED

AktivWissenschaftLEO
NORAD 26080·PAYLOAD·🇺🇸 United States

Gestartet Jan 27, 2000 von Vandenberg Space Force Base

Loading…

Nächste Überflüge (nächste 24 Stunden)

TLE

AktuellSource: Space-Track

Epoche: Sep 14, 2026, 09:36 UTC

1 26080U 00004H   26257.40027137  .00000365  00000-0  11492-3 0  9990
2 26080 100.2067 311.6628 0028680 267.7211  92.0692 14.47808272399823

Verfolge PICOSAT 1&2 in Echtzeit mit AllMySat

Download on the App Store